Time,TemperatureF,DewpointF,PressureIn,WindDirection,WindDirectionDegrees,WindSpeedMPH,WindSpeedGustMPH,Humidity,HourlyPrecipIn,Conditions,Clouds,dailyrainin,SolarRadiationWatts/m^2,SoftwareType,DateUTC
2013-03-07 00:02:00,43.0,31.0,-100.00,WNW,291,11.0,24.0,62,0.00,,,0.21,0.000000,,2013-03-07 05:02:00,
2013-03-07 00:12:00,43.0,31.0,-100.00,WNW,291,11.0,24.0,62,0.00,,,0.21,0.000000,,2013-03-07 05:12:00,
2013-03-07 00:22:00,43.0,31.0,-100.00,WNW,291,11.0,24.0,62,0.00,,,0.21,0.000000,,2013-03-07 05:22:00,
2013-03-07 00:52:00,43.0,31.0,-100.00,WNW,295,10.0,25.0,62,0.00,,,0.17,0.000000,,2013-03-07 05:52:00,
2013-03-07 01:02:00,43.0,31.0,-100.00,WNW,295,10.0,25.0,62,0.00,,,0.17,0.000000,,2013-03-07 06:02:00,
2013-03-07 01:11:00,43.0,31.0,-100.00,WNW,295,10.0,25.0,62,0.00,,,0.17,0.000000,,2013-03-07 06:11:00,
2013-03-07 01:22:00,43.0,31.0,-100.00,WNW,295,10.0,25.0,62,0.00,,,0.17,0.000000,,2013-03-07 06:22:00,
2013-03-07 01:52:00,42.0,30.0,-100.00,WNW,295,9.0,22.0,62,0.00,,,0.03,0.000000,,2013-03-07 06:52:00,
2013-03-07 02:02:00,42.0,30.0,-100.00,WNW,295,9.0,22.0,62,0.00,,,0.03,0.000000,,2013-03-07 07:02:00,
2013-03-07 02:11:00,42.0,30.0,-100.00,WNW,295,9.0,22.0,62,0.00,,,0.03,0.000000,,2013-03-07 07:11:00,
2013-03-07 02:22:00,42.0,30.0,-100.00,WNW,295,9.0,22.0,62,0.00,,,0.03,0.000000,,2013-03-07 07:22:00,
2013-03-07 02:53:00,42.0,30.0,-100.00,WNW,296,9.0,23.0,62,0.00,,,0.02,0.000000,,2013-03-07 07:53:00,
2013-03-07 03:03:00,42.0,30.0,-100.00,WNW,296,9.0,23.0,62,0.00,,,0.02,0.000000,,2013-03-07 08:03:00,
2013-03-07 03:12:00,42.0,30.0,-100.00,WNW,296,9.0,23.0,62,0.00,,,0.02,0.000000,,2013-03-07 08:12:00,
2013-03-07 03:23:00,42.0,30.0,-100.00,WNW,296,9.0,23.0,62,0.00,,,0.02,0.000000,,2013-03-07 08:23:00,
2013-03-07 03:54:00,41.0,29.0,-100.00,WNW,293,8.0,25.0,62,0.00,,,0.02,0.000000,,2013-03-07 08:54:00,
2013-03-07 04:03:00,41.0,29.0,-100.00,WNW,293,8.0,25.0,62,0.00,,,0.02,0.000000,,2013-03-07 09:03:00,
2013-03-07 04:13:00,41.0,29.0,-100.00,WNW,293,8.0,25.0,62,0.00,,,0.02,0.000000,,2013-03-07 09:13:00,
2013-03-07 04:23:00,41.0,29.0,-100.00,WNW,293,8.0,25.0,62,0.00,,,0.02,0.000000,,2013-03-07 09:23:00,
2013-03-07 04:54:00,41.0,28.0,-100.00,WNW,288,7.0,22.0,60,0.00,,,0.02,0.000000,,2013-03-07 09:54:00,
2013-03-07 05:04:00,41.0,28.0,-100.00,WNW,288,7.0,22.0,60,0.00,,,0.02,0.000000,,2013-03-07 10:04:00,
2013-03-07 05:13:00,41.0,28.0,-100.00,WNW,288,7.0,22.0,60,0.00,,,0.02,0.000000,,2013-03-07 10:13:00,
2013-03-07 05:24:00,41.0,28.0,-100.00,WNW,288,7.0,22.0,60,0.00,,,0.02,0.000000,,2013-03-07 10:24:00,
2013-03-07 05:53:00,41.0,28.0,-100.00,WNW,291,8.0,22.0,60,0.00,,,0.02,0.000000,,2013-03-07 10:53:00,
2013-03-07 06:03:00,41.0,28.0,-100.00,WNW,291,8.0,22.0,60,0.00,,,0.02,0.000000,,2013-03-07 11:03:00,
2013-03-07 06:12:00,41.0,28.0,-100.00,WNW,291,8.0,22.0,60,0.00,,,0.02,0.000000,,2013-03-07 11:12:00,
2013-03-07 06:23:00,41.0,28.0,-100.00,WNW,291,8.0,22.0,60,0.00,,,0.02,0.000000,,2013-03-07 11:23:00,
2013-03-07 06:55:00,41.0,29.0,-100.00,WNW,302,8.0,20.0,62,0.00,,,0.02,0.000000,,2013-03-07 11:55:00,
2013-03-07 07:04:00,41.0,29.0,-100.00,WNW,302,8.0,20.0,62,0.00,,,0.02,0.000000,,2013-03-07 12:04:00,
2013-03-07 07:12:00,41.0,29.0,-100.00,WNW,302,8.0,20.0,62,0.00,,,0.02,0.000000,,2013-03-07 12:12:00,
2013-03-07 07:23:00,41.0,29.0,-100.00,WNW,302,8.0,20.0,62,0.00,,,0.02,0.000000,,2013-03-07 12:23:00,
2013-03-07 07:53:00,42.0,30.0,-100.00,WNW,297,7.0,18.0,61,0.00,,,0.02,42.000000,,2013-03-07 12:53:00,
2013-03-07 08:03:00,42.0,30.0,-100.00,WNW,297,7.0,18.0,61,0.00,,,0.02,42.000000,,2013-03-07 13:03:00,
2013-03-07 08:12:00,42.0,30.0,-100.00,WNW,297,7.0,18.0,61,0.00,,,0.02,42.000000,,2013-03-07 13:12:00,
2013-03-07 08:22:00,42.0,30.0,-100.00,WNW,297,7.0,18.0,61,0.00,,,0.02,42.000000,,2013-03-07 13:22:00,
2013-03-07 08:53:00,44.0,30.0,-100.00,WNW,301,8.0,18.0,57,0.00,,,0.02,134.000000,,2013-03-07 13:53:00,
2013-03-07 09:02:00,44.0,30.0,-100.00,WNW,301,8.0,18.0,57,0.00,,,0.02,134.000000,,2013-03-07 14:02:00,
2013-03-07 09:12:00,44.0,30.0,-100.00,WNW,301,8.0,18.0,57,0.00,,,0.02,134.000000,,2013-03-07 14:12:00,
2013-03-07 09:23:00,44.0,30.0,-100.00,WNW,301,8.0,18.0,57,0.00,,,0.02,134.000000,,2013-03-07 14:23:00,
2013-03-07 09:54:00,46.0,31.0,-100.00,WNW,301,7.0,20.0,55,0.00,,,0.02,120.000000,,2013-03-07 14:54:00,
2013-03-07 10:03:00,46.0,31.0,-100.00,WNW,301,7.0,20.0,55,0.00,,,0.02,120.000000,,2013-03-07 15:03:00,
2013-03-07 10:12:00,46.0,31.0,-100.00,WNW,301,7.0,20.0,55,0.00,,,0.02,120.000000,,2013-03-07 15:12:00,
2013-03-07 10:23:00,46.0,31.0,-100.00,WNW,301,7.0,20.0,55,0.00,,,0.02,120.000000,,2013-03-07 15:23:00,
2013-03-07 10:53:00,49.0,32.0,-100.00,WNW,299,9.0,20.0,52,0.00,,,0.02,648.000000,,2013-03-07 15:53:00,
2013-03-07 11:03:00,49.0,32.0,-100.00,WNW,299,9.0,20.0,52,0.00,,,0.02,648.000000,,2013-03-07 16:03:00,
2013-03-07 11:13:00,49.0,32.0,-100.00,WNW,299,9.0,20.0,52,0.00,,,0.02,648.000000,,2013-03-07 16:13:00,
2013-03-07 11:24:00,49.0,32.0,-100.00,WNW,299,9.0,20.0,52,0.00,,,0.02,648.000000,,2013-03-07 16:24:00,
2013-03-07 11:53:00,50.0,32.0,-100.00,NW,306,8.0,19.0,50,0.00,,,0.02,773.000000,,2013-03-07 16:53:00,
2013-03-07 12:03:00,50.0,32.0,-100.00,NW,306,8.0,19.0,50,0.00,,,0.02,773.000000,,2013-03-07 17:03:00,
2013-03-07 12:12:00,50.0,32.0,-100.00,NW,306,8.0,19.0,50,0.00,,,0.02,773.000000,,2013-03-07 17:12:00,
2013-03-07 12:23:00,50.0,32.0,-100.00,NW,306,8.0,19.0,50,0.00,,,0.02,773.000000,,2013-03-07 17:23:00,
2013-03-07 12:55:00,52.0,34.0,-100.00,NW,307,7.0,20.0,50,0.00,,,0.02,833.000000,,2013-03-07 17:55:00,
2013-03-07 13:04:00,52.0,34.0,-100.00,NW,307,7.0,20.0,50,0.00,,,0.02,833.000000,,2013-03-07 18:04:00,
2013-03-07 13:13:00,52.0,34.0,-100.00,NW,307,7.0,20.0,50,0.00,,,0.02,833.000000,,2013-03-07 18:13:00,
2013-03-07 13:22:00,52.0,34.0,-100.00,NW,307,7.0,20.0,50,0.00,,,0.02,833.000000,,2013-03-07 18:22:00,
2013-03-07 13:53:00,54.0,35.0,-100.00,NW,311,6.0,19.0,49,0.00,,,0.02,826.000000,,2013-03-07 18:53:00,
2013-03-07 14:03:00,54.0,35.0,-100.00,NW,311,6.0,19.0,49,0.00,,,0.02,826.000000,,2013-03-07 19:03:00,
2013-03-07 14:12:00,54.0,35.0,-100.00,NW,311,6.0,19.0,49,0.00,,,0.02,826.000000,,2013-03-07 19:12:00,
2013-03-07 14:23:00,54.0,35.0,-100.00,NW,311,6.0,19.0,49,0.00,,,0.02,826.000000,,2013-03-07 19:23:00,
2013-03-07 14:53:00,54.0,35.0,-100.00,NW,316,6.0,18.0,49,0.00,,,0.02,752.000000,,2013-03-07 19:53:00,
2013-03-07 15:02:00,54.0,35.0,-100.00,NW,316,6.0,18.0,49,0.00,,,0.02,752.000000,,2013-03-07 20:02:00,
2013-03-07 15:14:00,54.0,35.0,-100.00,NW,316,6.0,18.0,49,0.00,,,0.02,752.000000,,2013-03-07 20:14:00,
2013-03-07 15:22:00,54.0,35.0,-100.00,NW,316,6.0,18.0,49,0.00,,,0.02,752.000000,,2013-03-07 20:22:00,
2013-03-07 15:54:00,55.0,37.0,-100.00,NNW,332,5.0,14.0,50,0.00,,,0.02,615.000000,,2013-03-07 20:54:00,
2013-03-07 16:03:00,55.0,37.0,-100.00,NNW,332,5.0,14.0,50,0.00,,,0.02,615.000000,,2013-03-07 21:03:00,
2013-03-07 16:12:00,55.0,37.0,-100.00,NNW,332,5.0,14.0,50,0.00,,,0.02,615.000000,,2013-03-07 21:12:00,
2013-03-07 16:23:00,55.0,37.0,-100.00,NNW,332,5.0,14.0,50,0.00,,,0.02,615.000000,,2013-03-07 21:23:00,
2013-03-07 16:53:00,54.0,36.0,-100.00,NW,318,4.0,11.0,50,0.00,,,0.02,447.000000,,2013-03-07 21:53:00,
2013-03-07 17:02:00,54.0,36.0,-100.00,NW,318,4.0,11.0,50,0.00,,,0.02,447.000000,,2013-03-07 22:02:00,
2013-03-07 17:12:00,54.0,36.0,-100.00,NW,318,4.0,11.0,50,0.00,,,0.02,447.000000,,2013-03-07 22:12:00,
2013-03-07 17:23:00,54.0,36.0,-100.00,NW,318,4.0,11.0,50,0.00,,,0.02,447.000000,,2013-03-07 22:23:00,
2013-03-07 17:55:00,50.0,33.0,-100.00,WNW,295,6.0,15.0,51,0.00,,,0.02,186.000000,,2013-03-07 22:55:00,
2013-03-07 18:03:00,50.0,33.0,-100.00,WNW,295,6.0,15.0,51,0.00,,,0.02,186.000000,,2013-03-07 23:03:00,
2013-03-07 18:13:00,50.0,33.0,-100.00,WNW,295,6.0,15.0,51,0.00,,,0.02,186.000000,,2013-03-07 23:13:00,
2013-03-07 18:22:00,50.0,33.0,-100.00,WNW,295,6.0,15.0,51,0.00,,,0.02,186.000000,,2013-03-07 23:22:00,
2013-03-07 18:54:00,47.0,31.0,-100.00,WNW,289,6.0,18.0,53,0.00,,,0.00,21.000000,,2013-03-07 23:54:00,
2013-03-07 19:04:00,47.0,31.0,-100.00,WNW,289,6.0,18.0,53,0.00,,,0.00,21.000000,,2013-03-08 00:04:00,
2013-03-07 19:13:00,47.0,31.0,-100.00,WNW,289,6.0,18.0,53,0.00,,,0.00,21.000000,,2013-03-08 00:13:00,
2013-03-07 19:23:00,47.0,31.0,-100.00,WNW,289,6.0,18.0,53,0.00,,,0.00,21.000000,,2013-03-08 00:23:00,
2013-03-07 19:54:00,46.0,30.0,-100.00,West,280,5.0,14.0,54,0.00,,,0.00,0.000000,,2013-03-08 00:54:00,
2013-03-07 20:02:00,46.0,30.0,-100.00,West,280,5.0,14.0,54,0.00,,,0.00,0.000000,,2013-03-08 01:02:00,
2013-03-07 20:12:00,46.0,30.0,-100.00,West,280,5.0,14.0,54,0.00,,,0.00,0.000000,,2013-03-08 01:12:00,
2013-03-07 20:22:00,46.0,30.0,-100.00,West,280,5.0,14.0,54,0.00,,,0.00,0.000000,,2013-03-08 01:22:00,
2013-03-07 20:52:00,45.0,29.0,-100.00,WNW,288,5.0,12.0,54,0.00,,,0.00,0.000000,,2013-03-08 01:52:00,
2013-03-07 21:02:00,45.0,29.0,-100.00,WNW,288,5.0,12.0,54,0.00,,,0.00,0.000000,,2013-03-08 02:02:00,
2013-03-07 21:12:00,45.0,29.0,-100.00,WNW,288,5.0,12.0,54,0.00,,,0.00,0.000000,,2013-03-08 02:12:00,
2013-03-07 21:22:00,45.0,29.0,-100.00,WNW,288,5.0,12.0,54,0.00,,,0.00,0.000000,,2013-03-08 02:22:00,
2013-03-07 21:53:00,45.0,29.0,-100.00,WNW,286,6.0,19.0,54,0.00,,,0.00,0.000000,,2013-03-08 02:53:00,
2013-03-07 22:02:00,45.0,29.0,-100.00,WNW,286,6.0,19.0,54,0.00,,,0.00,0.000000,,2013-03-08 03:02:00,
2013-03-07 22:12:00,45.0,29.0,-100.00,WNW,286,6.0,19.0,54,0.00,,,0.00,0.000000,,2013-03-08 03:12:00,
2013-03-07 22:22:00,45.0,29.0,-100.00,WNW,286,6.0,19.0,54,0.00,,,0.00,0.000000,,2013-03-08 03:22:00,
2013-03-07 22:53:00,45.0,30.0,-100.00,WNW,285,5.0,15.0,55,0.00,,,0.00,0.000000,,2013-03-08 03:53:00,
2013-03-07 23:02:00,45.0,30.0,-100.00,WNW,285,5.0,15.0,55,0.00,,,0.00,0.000000,,2013-03-08 04:02:00,
2013-03-07 23:12:00,45.0,30.0,-100.00,WNW,285,5.0,15.0,55,0.00,,,0.00,0.000000,,2013-03-08 04:12:00,
2013-03-07 23:22:00,45.0,30.0,-100.00,WNW,285,5.0,15.0,55,0.00,,,0.00,0.000000,,2013-03-08 04:22:00,
2013-03-07 23:52:00,43.0,28.0,-100.00,West,281,5.0,13.0,55,0.00,,,0.00,0.000000,,2013-03-08 04:52:00,